Weather History for Minot, ND

Change the Weather History Date:

Saturday, October 11, 2014

  Actual Average Record
Temperature  
Mean Temperature 52 °F 47 °F  
Max Temperature 69 °F 58 °F 86 °F (1934)
Min Temperature 35 °F 36 °F 12 °F (1919)
Degree Days  
Heating Degree Days 13 18  
Month to date heating degree days 220 177  
Since 1 July heating degree days 500 497  
Cooling Degree Days 0 0  
Month to date cooling degree days 0 0  
Year to date cooling degree days 341 444  
Growing Degree Days 2 (Base 50)    
Moisture  
Dew Point 37 °F    
Average Humidity 55    
Maximum Humidity 70    
Minimum Humidity 39    
Precipitation  
Precipitation 0.00 in 0.05 in 1.04 in (2013)
Month to date precipitation 0.10 0.49  
Year to date precipitation 15.59 15.39  
Sea Level Pressure  
Sea Level Pressure 29.78 in    
Wind  
Wind Speed 11 mph (South)    
Max Wind Speed 22 mph    
Max Gust Speed 27 mph    
Visibility 10 miles    
Events      
T = Trace of Precipitation, MM = Missing Value Source: NWS Daily Summary

Daily Weather History Graph

Daily Weather History Graph

Search for Another Location

Airport:

Trip Planner

Search our weather history database for the weather conditions in past years. The results will help you decide how hot, cold, wet, or windy it might be!

Date:

Astronomy

Oct. 11, 2014 Rise Set
Actual Time 7:58 AM CDT 7:03 PM CDT
Civil Twilight 7:27 AM CDT 7:35 PM CDT
Nautical Twilight 6:51 AM CDT 8:11 PM CDT
Astronomical Twilight 6:15 AM CDT 8:47 PM CDT
Moon 9:18 PM CDT (10/11) 11:38 AM CDT (10/11)
Length of Visible Light 12h 07m
Length of Day
11h 04m
Waning Gibbous, 87% of the Moon is Illuminated
Oct 11
Waning Gibbous
Oct 15
Last Quarter
Oct 23
New
Oct 30
First Quarter
Nov 6
Full

Hourly Weather History & Observations

Time (CDT) Temp. Windchill Dew Point Humidity Pressure Visibility Wind Dir Wind Speed Gust Speed Precip Events Conditions
12:54 AM 48.0 °F - 30.0 °F 50% 30.06 in 10.0 mi South 15.0 mph - N/A   Clear
1:54 AM 48.0 °F - 28.9 °F 48% 30.04 in 10.0 mi South 16.1 mph 25.3 mph N/A   Clear
2:54 AM 45.0 °F 40.6 °F 30.0 °F 56% 30.03 in 10.0 mi SSE 8.1 mph - N/A   Clear
3:54 AM 39.0 °F 34.8 °F 28.0 °F 65% 30.01 in 10.0 mi SE 5.8 mph - N/A   Clear
4:54 AM 36.0 °F - 27.0 °F 70% 29.99 in 10.0 mi Calm Calm - N/A   Clear
5:54 AM 39.9 °F 35.1 °F 28.9 °F 65% 29.96 in 10.0 mi SE 6.9 mph - N/A   Clear
6:54 AM 43.0 °F 36.0 °F 28.9 °F 58% 29.94 in 10.0 mi SSE 13.8 mph - N/A   Clear
7:54 AM 39.0 °F 31.4 °F 28.9 °F 67% 29.92 in 10.0 mi SSE 12.7 mph - N/A   Clear
8:54 AM 41.0 °F 37.1 °F 30.0 °F 65% 29.90 in 10.0 mi SSE 5.8 mph - N/A   Clear
9:54 AM 48.0 °F - 33.1 °F 56% 29.87 in 10.0 mi South 16.1 mph 23.0 mph N/A   Clear
10:54 AM 51.1 °F - 34.0 °F 52% 29.83 in 10.0 mi South 17.3 mph 27.6 mph N/A   Clear
11:54 AM 55.9 °F - 37.0 °F 49% 29.79 in 10.0 mi South 19.6 mph - N/A   Clear
12:54 PM 61.0 °F - 39.9 °F 46% 29.75 in 10.0 mi SSE 13.8 mph - N/A   Clear
1:54 PM 63.0 °F - 41.0 °F 45% 29.71 in 10.0 mi South 13.8 mph - N/A   Clear
2:54 PM 66.0 °F - 42.1 °F 42% 29.68 in 10.0 mi South 18.4 mph - N/A   Clear
3:54 PM 68.0 °F - 42.8 °F 40% 29.64 in 10.0 mi South 12.7 mph - N/A   Clear
4:54 PM 69.1 °F - 44.1 °F 40% 29.64 in 10.0 mi South 12.7 mph 25.3 mph N/A   Clear
5:54 PM 68.0 °F - 44.1 °F 42% 29.61 in 10.0 mi South 12.7 mph 20.7 mph N/A   Clear
6:54 PM 64.9 °F - 45.0 °F 48% 29.60 in 10.0 mi South 9.2 mph - N/A   Clear
7:54 PM 60.1 °F - 45.0 °F 57% 29.60 in 10.0 mi South 5.8 mph - N/A   Clear
8:54 PM 60.1 °F - 44.1 °F 55% 29.58 in 10.0 mi South 5.8 mph - N/A   Clear
9:54 PM 60.1 °F - 44.1 °F 55% 29.56 in 10.0 mi SSW 9.2 mph - N/A   Clear
10:54 PM 55.9 °F - 45.0 °F 67% 29.56 in 10.0 mi SW 11.5 mph - N/A   Scattered Clouds
11:54 PM 55.9 °F - 44.1 °F 64% 29.54 in 10.0 mi SSW 10.4 mph - N/A   Partly Cloudy